Truth Or Consequences, NM

2:05 AM MDT on March 30, 2017 (GMT -0600)
Truth Or Consequences Municipal

Weather History for KTCS - May, 2013

Change the Weather History Date:

Saturday, May 25, 2013

  Actual Average Record
Temperature  
Mean Temperature 76 °F -  
Max Temperature 94 °F 87 °F 97 °F (2006)
Min Temperature 58 °F 58 °F 50 °F (1999)
Cooling Degree Days 11    
Month to date cooling degree days 131  
Year to date cooling degree days 177  
Growing Degree Days 26 (Base 50)    
Moisture  
Dew Point 15 °F    
Average Humidity 17    
Maximum Humidity 29    
Minimum Humidity 4    
Precipitation  
Precipitation 0.00 in - 0.27 in (2007)
Month to date precipitation 0.14  
Year to date precipitation 0.28  
Sea Level Pressure  
Sea Level Pressure 29.77 in    
Wind  
Wind Speed 11 mph (SW)    
Max Wind Speed 26 mph    
Max Gust Speed 36 mph    
Visibility 10 miles    
Events      
T = Trace of Precipitation, MM = Missing Value Source: NWS Daily Summary

Daily Weather History Graph

Daily Weather History Graph

Search for Another Location

Airport or City:

Trip Planner

Search our weather history database for the weather conditions in past years. The results will help you decide how hot, cold, wet, or windy it might be!

Date:

Astronomy

May. 25, 2013 Rise Set
Actual Time 6:03 AM MDT 8:09 PM MDT
Civil Twilight 5:35 AM MDT 8:37 PM MDT
Nautical Twilight 5:01 AM MDT 9:11 PM MDT
Astronomical Twilight 4:24 AM MDT 9:48 PM MDT
Moon 9:00 PM MDT (5/25) 6:32 AM MDT (5/25)
Length of Visible Light 15h 02m
Length of Day
14h 05m
Waxing Gibbous, 99% of the Moon is Illuminated
May 25
Waxing Gibbous
May 31
Last Quarter
Jun 8
New
Jun 16
First Quarter
Jun 23
Full

Hourly Weather History & Observations

Time (MDT) Temp. Dew Point Humidity Pressure Visibility Wind Dir Wind Speed Gust Speed Precip Events Conditions
12:53 AM 68.0 °F 10.9 °F 11% 29.77 in 10.0 mi West 9.2 mph - N/A   Clear
1:53 AM 68.0 °F 10.9 °F 11% 29.78 in 10.0 mi Calm Calm - N/A   Clear
2:53 AM 64.0 °F 12.9 °F 14% 29.79 in 10.0 mi NE 3.5 mph - N/A   Clear
3:53 AM 63.0 °F 10.0 °F 13% 29.80 in 10.0 mi NW 3.5 mph - N/A   Clear
4:53 AM 59.0 °F 9.0 °F 14% 29.81 in 10.0 mi WNW 10.4 mph - N/A   Clear
5:53 AM 60.1 °F 10.0 °F 14% 29.83 in 10.0 mi West 6.9 mph - N/A   Clear
6:53 AM 62.1 °F 10.0 °F 13% 29.85 in 10.0 mi WNW 9.2 mph - N/A   Clear
7:53 AM 69.1 °F 19.0 °F 15% 29.85 in 10.0 mi Calm Calm - N/A   Clear
8:53 AM 72.0 °F 27.0 °F 19% 29.86 in 10.0 mi South 5.8 mph - N/A   Clear
9:53 AM 75.0 °F 41.0 °F 29% 29.86 in 10.0 mi SSE 8.1 mph - N/A   Clear
10:53 AM 80.1 °F 33.1 °F 18% 29.84 in 10.0 mi South 8.1 mph - N/A   Clear
11:53 AM 86.0 °F 17.1 °F 8% 29.81 in 10.0 mi South 15.0 mph 23.0 mph N/A   Clear
12:53 PM 91.0 °F 18.0 °F 7% 29.78 in 10.0 mi South 20.7 mph 34.5 mph N/A   Clear
1:53 PM 91.0 °F 10.0 °F 5% 29.75 in 10.0 mi South 20.7 mph 31.1 mph N/A   Clear
2:53 PM 91.9 °F 9.0 °F 5% 29.74 in 10.0 mi SW 17.3 mph 28.8 mph N/A   Clear
3:53 PM 93.0 °F 10.9 °F 5% 29.71 in 10.0 mi SSW 23.0 mph 31.1 mph N/A   Clear
4:53 PM 93.0 °F 12.9 °F 5% 29.70 in 10.0 mi SSW 19.6 mph 32.2 mph N/A   Clear
5:53 PM 91.0 °F 12.9 °F 6% 29.68 in 10.0 mi SSW 19.6 mph 31.1 mph N/A   Clear
6:53 PM 90.0 °F 12.9 °F 6% 29.68 in 10.0 mi SW 17.3 mph 26.5 mph N/A   Clear
7:53 PM 87.1 °F 14.0 °F 7% 29.68 in 10.0 mi SW 12.7 mph - N/A   Clear
8:53 PM 82.9 °F 17.1 °F 9% 29.71 in 10.0 mi West 8.1 mph - N/A   Clear
9:53 PM 79.0 °F 18.0 °F 10% 29.73 in 10.0 mi West 8.1 mph - N/A   Clear
10:53 PM 75.0 °F 17.1 °F 11% 29.75 in 10.0 mi WNW 10.4 mph - N/A   Clear
11:53 PM 72.0 °F 15.1 °F 11% 29.74 in 10.0 mi WNW 9.2 mph - N/A   Clear